Tracking 33744 objects as of 13-Apr-2026
HD Live streaming from Space Station
objects crossing your sky now

OBJECT G

Track OBJECT G now!
10-day predictions


NORAD ID: 67752
Int'l Code: 2026-027G
Perigee: 525.5 km
Apogee: 544.8 km
Inclination: 97.5 °
Period: 95.2 minutes
Semi major axis: 6906 km
RCS: Unknown
Launch date: February 12, 2026
Source: People's Republic of China (PRC)
Launch site: ()
Your satellite tracking list
Your tracking list is empty




NASA's NSSDC Master Catalog

Two Line Element Set (TLE):
1 67752U 26027G   26102.78665877  .00004130  00000-0  23909-3 0  9993
2 67752  97.4958 231.1607 0013968 114.3527 245.9164 15.12700129  9010
Source of the keplerian elements: AFSPC